Wind_Speed
37 38 39 39 40 40 40 40 40 40 40 40 41 41 41 41 41 42 42 43 44 44 45 46 46 46 46 47 47 46 43 40 39 38 37 37 38 39 40 37 34 33
34 36 37 38 39 40 41 42 42 42 43 43 43 43 44 44 44 45 45 45 46 47 47 48 49 50 50 49 49 49 49 48 46 43 41 41 41 41 42 40 37 36
28 30 31 33 34 35 36 37 38 39 40 40 41 42 42 43 43 44 44 45 46 47 48 48 49 51 52 52 51 50 51 51 51 50 48 45 44 45 45 44 42 41
22 23 25 26 27 28 29 30 31 32 33 34 35 36 36 37 38 39 39 40 41 42 44 45 46 47 49 50 51 50 50 50 51 52 53 52 50 48 47 47 47 46
20 21 22 23 24 25 26 27 28 29 29 30 31 32 33 34 35 36 37 38 39 40 41 42 43 44 45 46 47 47 48 48 49 50 52 54 54 54 51 50 51 50
23 24 25 26 27 28 29 30 30 31 32 32 33 34 35 36 36 37 38 40 41 42 43 44 45 45 44 44 44 45 46 48 49 50 51 52 53 56 55 54 54 55
27 28 29 29 31 31 32 33 34 35 35 36 37 37 38 39 40 40 41 42 43 44 45 46 47 47 46 46 46 46 47 48 49 51 53 53 53 55 56 57 57 58
29 30 30 31 32 34 35 36 37 37 38 38 39 40 41 41 42 43 44 45 45 45 46 46 47 48 48 49 49 50 50 50 50 51 53 55 55 56 57 57 58 60
32 33 34 35 36 36 37 38 38 39 40 41 42 43 43 44 45 45 46 46 46 46 46 46 47 47 49 50 51 52 52 52 52 53 54 55 56 57 58 59 60 60
36 37 38 39 39 39 39 40 40 41 42 43 44 45 45 46 47 48 48 49 49 49 49 49 49 49 50 51 52 53 53 54 54 54 55 56 57 57 58 59 61 62
40 40 41 41 42 42 43 44 45 45 46 47 47 48 49 49 50 51 52 53 53 52 52 51 51 51 52 52 53 54 55 56 55 55 55 55 56 56 57 58 60 62
42 43 44 45 45 47 48 49 49 50 51 52 53 53 53 53 54 54 54 55 54 54 53 53 53 53 54 54 55 55 56 55 55 54 53 54 54 55 55 56 58 60
45 46 48 49 50 51 53 54 55 55 56 56 56 56 56 55 55 56 56 55 55 55 55 55 56 56 56 56 56 55 55 55 54 53 53 52 53 53 54 55 56 58
48 50 51 53 54 56 57 57 58 58 57 57 57 57 56 56 57 57 57 57 57 57 58 58 59 58 58 57 56 55 54 54 54 53 53 52 52 52 53 53 55 56
52 53 55 57 58 58 59 59 59 59 59 59 59 58 58 58 59 59 59 60 60 60 61 61 60 60 58 57 56 54 53 52 52 52 52 52 52 52 52 53 54 55
55 56 57 58 59 60 60 60 61 61 62 62 61 61 61 62 62 62 62 62 62 62 62 61 60 59 57 56 54 52 51 51 51 51 51 51 52 52 52 52 53 54
57 57 58 59 60 61 62 62 63 63 63 63 63 64 64 64 64 64 63 62 62 61 61 59 58 57 55 54 52 51 51 50 51 51 51 51 51 52 52 52 52 53
58 58 59 60 62 63 64 65 66 66 65 65 65 65 65 64 63 62 61 60 59 59 59 58 57 56 54 53 52 52 51 51 51 51 51 50 50 50 51 52 52 52
59 60 61 62 63 65 66 67 67 66 65 64 63 62 62 61 60 59 59 58 58 58 58 58 58 57 55 54 53 52 52 51 51 52 52 52 51 50 50 51 51 52
61 62 63 64 65 65 66 66 65 64 63 61 60 60 59 59 59 59 59 59 59 59 59 60 59 58 56 55 54 53 52 51 52 52 52 53 53 52 51 51 51 51
63 64 65 64 64 63 62 61 60 60 59 59 59 59 59 60 60 61 61 61 60 60 60 61 61 59 57 56 55 53 52 52 52 53 53 54 54 54 53 52 51 51
63 63 62 61 60 60 59 58 58 58 58 59 60 61 61 61 62 62 63 62 62 61 61 61 62 60 58 56 55 54 53 52 53 53 54 54 54 54 54 53 52 52
61 60 60 60 60 59 59 59 59 59 60 61 62 63 63 63 63 64 64 63 63 62 62 61 62 61 59 56 55 54 53 53 53 54 54 54 54 54 53 53 53 52
60 59 59 60 61 61 61 61 61 61 62 62 62 63 64 64 64 65 65 64 63 62 62 61 61 60 59 57 56 56 55 55 54 54 54 54 54 53 53 53 53 53
60 59 59 61 61 62 62 63 63 63 63 63 63 63 63 64 64 64 64 64 62 61 61 60 59 60 60 59 58 57 56 55 54 54 54 55 54 53 53 53 53 53
60 60 61 62 62 62 63 64 64 64 64 64 63 63 63 63 63 62 62 62 62 61 60 60 59 59 60 60 59 58 57 55 54 53 54 54 54 53 53 54 54 54
Wind_Direction
245 246 247 247 248 249 251 252 254 254 256 257 258 259 260 261 261 262 263 263 263 263 263 264 265 265 264 264 266 267 266 261 255 253 252 252 253 254 254 252 250 249
250 251 252 252 253 253 254 256 257 258 259 260 262 263 264 265 265 266 266 266 266 265 264 264 265 266 266 265 265 265 267 267 264 259 254 251 251 252 253 251 247 245
256 256 256 257 257 258 258 259 260 261 262 263 264 265 266 266 267 268 268 268 268 267 267 266 265 265 266 267 267 265 265 265 265 264 261 255 250 248 250 250 247 244
266 266 265 265 265 265 265 266 265 266 266 266 267 267 267 268 268 268 269 269 269 269 269 268 267 266 266 266 267 268 267 266 265 263 263 261 257 251 246 247 247 245
281 280 279 278 277 276 275 274 273 273 272 271 271 271 271 270 270 271 271 271 271 271 271 270 269 268 268 267 267 268 268 268 267 265 262 261 260 257 251 245 243 243
290 289 287 286 285 283 282 280 279 277 276 275 274 273 273 272 271 271 272 273 273 273 272 271 271 269 268 268 268 268 269 269 267 266 264 261 259 258 256 250 244 240
291 288 287 286 284 283 281 280 279 278 277 276 275 274 274 273 273 273 273 274 274 275 274 273 271 269 268 269 270 271 272 271 269 266 264 262 259 257 256 253 249 244
287 285 283 284 284 284 283 282 280 279 278 277 277 276 277 276 277 277 277 277 277 277 276 275 273 270 269 269 271 273 274 273 271 268 264 262 260 258 255 253 251 248
286 285 285 286 287 287 287 285 284 283 283 282 282 280 280 280 280 280 279 280 280 279 278 277 275 273 271 271 272 274 275 274 273 271 268 264 260 258 256 253 251 249
289 289 289 289 289 289 290 290 289 289 288 288 287 286 284 284 284 283 283 284 284 283 282 280 278 276 275 274 275 275 276 275 274 272 269 266 262 258 255 253 251 249
291 292 292 291 291 292 293 293 293 292 292 292 292 291 290 288 287 287 287 287 286 285 284 283 281 280 279 279 279 279 278 277 275 272 269 266 263 260 257 254 252 250
294 295 295 294 294 294 295 295 296 296 296 295 295 294 293 292 290 289 288 288 287 287 286 285 284 284 284 283 282 282 281 279 276 272 269 266 264 261 258 255 252 250
296 296 296 296 295 295 296 297 297 297 297 297 296 295 294 294 293 292 291 290 290 289 289 288 289 288 287 286 285 284 282 280 277 274 271 268 265 262 259 257 254 251
296 296 295 295 296 296 297 298 298 298 298 298 297 296 295 295 295 294 294 293 293 292 292 291 291 290 289 288 286 285 283 281 279 277 274 270 267 264 261 258 255 253
295 294 295 295 296 298 298 299 299 299 299 298 297 296 296 296 297 297 296 295 294 294 293 292 291 290 289 288 286 285 283 281 279 278 276 273 270 266 262 259 256 254
295 295 296 297 298 299 300 300 300 300 299 298 297 297 298 298 298 297 296 295 294 293 293 292 291 290 289 288 286 284 282 281 280 279 277 274 272 268 265 261 257 254
297 297 298 299 300 301 301 301 301 300 299 298 298 298 298 298 297 296 295 294 293 293 292 291 290 289 289 287 286 284 282 281 280 280 278 275 273 270 267 263 260 256
299 300 300 301 301 301 300 300 299 299 298 298 298 298 297 296 295 295 294 294 293 293 292 291 290 289 288 287 285 284 282 282 281 280 279 277 274 271 268 265 262 258
301 301 301 301 300 299 298 298 298 298 298 298 298 297 296 296 296 295 295 295 294 294 293 292 291 290 289 287 286 284 283 282 281 281 280 278 276 273 269 266 263 260
301 301 300 299 298 297 297 298 298 299 299 299 298 298 297 297 297 297 296 296 295 295 294 293 292 291 289 288 286 285 283 283 282 281 280 279 277 274 271 268 264 261
300 299 299 298 298 299 299 300 300 300 299 300 299 299 299 299 299 298 297 296 295 294 293 293 292 291 290 288 287 285 284 283 282 281 280 278 276 274 272 269 266 262
299 300 300 301 301 302 302 302 301 300 300 300 300 300 299 299 298 297 297 296 295 294 293 292 291 291 290 288 287 285 284 282 281 280 278 276 274 273 271 269 266 263
300 301 301 303 303 303 302 302 301 300 300 300 300 299 299 298 298 297 296 296 295 294 293 292 291 290 289 288 287 285 284 282 281 280 278 276 273 271 269 267 265 263
302 302 301 302 302 301 301 300 300 300 299 299 299 299 298 298 298 297 296 295 294 293 292 291 291 290 289 288 287 286 284 283 281 279 278 276 273 271 269 267 265 262
302 301 300 300 299 299 298 299 299 299 299 299 299 298 298 297 296 296 295 294 293 292 291 291 290 290 289 288 287 285 284 282 281 279 277 275 273 271 269 267 265 262
300 299 298 298 297 297 298 298 299 299 300 299 299 298 297 296 295 295 294 293 293 292 291 290 290 289 288 287 286 285 283 282 280 279 277 275 273 272 269 267 264 262
Height
10933 10934 10934 10934 10934 10934 10934 10934 10935 10935 10935 10934 10934 10934 10934 10934 10934 10933 10933 10933 10933 10933 10932 10932 10931 10931 10931 10931 10932 10932 10933 10934 10935 10935 10936 10937 10938 10937 10938 10940 10942 10943
10930 10930 10930 10931 10931 10931 10931 10931 10930 10930 10930 10930 10930 10929 10929 10928 10928 10928 10928 10927 10927 10927 10927 10926 10926 10925 10925 10925 10926 10926 10926 10926 10927 10929 10930 10931 10931 10931 10932 10935 10937 10938
10927 10927 10927 10927 10927 10927 10926 10926 10926 10926 10925 10925 10925 10924 10924 10923 10923 10922 10922 10921 10921 10920 10920 10920 10919 10919 10918 10918 10919 10920 10920 10920 10920 10921 10922 10923 10925 10925 10926 10928 10931 10933
10923 10923 10923 10923 10922 10922 10922 10921 10921 10921 10920 10920 10919 10919 10918 10918 10917 10917 10916 10916 10915 10914 10914 10913 10913 10912 10912 10911 10911 10912 10912 10913 10913 10914 10914 10915 10916 10918 10920 10922 10924 10926
10920 10919 10919 10919 10918 10918 10918 10917 10917 10916 10916 10915 10914 10914 10913 10912 10912 10911 10910 10910 10909 10908 10908 10907 10906 10905 10905 10904 10904 10904 10904 10905 10905 10905 10906 10907 10907 10908 10912 10915 10916 10918
10916 10916 10915 10915 10914 10914 10913 10912 10912 10911 10911 10910 10909 10909 10908 10907 10906 10906 10905 10904 10903 10902 10901 10900 10899 10898 10897 10897 10897 10897 10897 10897 10897 10897 10897 10898 10899 10899 10901 10905 10907 10909
10912 10912 10911 10910 10910 10909 10908 10907 10907 10906 10905 10904 10903 10902 10902 10901 10900 10899 10898 10897 10897 10896 10894 10893 10892 10891 10890 10889 10889 10889 10889 10889 10889 10888 10888 10889 10890 10890 10891 10894 10896 10899
10908 10907 10906 10905 10904 10903 10902 10902 10901 10900 10899 10898 10897 10896 10895 10894 10893 10892 10891 10890 10889 10888 10887 10886 10885 10884 10883 10882 10881 10881 10880 10880 10879 10879 10879 10879 10880 10880 10881 10883 10885 10887
10903 10902 10901 10900 10899 10897 10896 10895 10894 10893 10892 10891 10890 10889 10888 10887 10885 10884 10883 10882 10881 10880 10879 10878 10877 10876 10875 10875 10874 10873 10871 10871 10870 10869 10868 10868 10869 10870 10871 10872 10874 10875
10898 10897 10895 10894 10893 10891 10890 10889 10887 10886 10885 10883 10882 10881 10880 10879 10877 10875 10874 10873 10871 10870 10870 10869 10868 10867 10866 10866 10865 10864 10862 10861 10860 10859 10858 10857 10858 10859 10861 10862 10863 10864
10893 10891 10889 10888 10886 10885 10883 10882 10880 10879 10877 10876 10874 10872 10871 10870 10868 10867 10865 10863 10862 10861 10860 10859 10858 10857 10856 10855 10854 10853 10852 10850 10849 10849 10848 10847 10847 10848 10849 10850 10851 10852
10886 10884 10882 10881 10879 10878 10876 10875 10873 10871 10869 10867 10866 10864 10862 10860 10859 10858 10856 10854 10853 10851 10850 10849 10847 10846 10845 10844 10843 10842 10840 10838 10838 10837 10837 10836 10836 10836 10838 10839 10840 10840
10879 10877 10875 10874 10872 10871 10869 10867 10865 10863 10861 10859 10857 10855 10853 10851 10849 10848 10846 10844 10843 10841 10839 10838 10836 10834 10833 10832 10831 10830 10828 10827 10825 10825 10825 10825 10825 10825 10826 10827 10828 10829
10873 10871 10869 10867 10865 10863 10861 10859 10857 10855 10853 10851 10849 10847 10845 10842 10840 10838 10836 10834 10832 10830 10828 10826 10825 10823 10822 10821 10819 10818 10817 10815 10814 10813 10813 10813 10814 10814 10815 10816 10816 10818
10867 10864 10862 10859 10857 10855 10853 10850 10848 10845 10843 10841 10840 10838 10835 10833 10830 10828 10825 10823 10821 10819 10817 10815 10813 10812 10811 10810 10809 10807 10806 10805 10804 10803 10802 10802 10802 10802 10803 10804 10805 10807
10860 10857 10854 10851 10849 10846 10844 10842 10839 10837 10834 10832 10830 10828 10825 10823 10820 10818 10816 10813 10811 10808 10806 10804 10802 10801 10800 10799 10798 10797 10797 10795 10794 10793 10792 10791 10791 10791 10791 10793 10794 10796
10852 10849 10846 10844 10841 10838 10836 10833 10831 10828 10826 10823 10821 10818 10815 10813 10810 10808 10806 10803 10801 10798 10796 10794 10792 10791 10790 10789 10789 10788 10787 10786 10785 10783 10782 10781 10781 10780 10781 10781 10783 10785
10844 10842 10839 10837 10834 10831 10828 10825 10822 10820 10817 10815 10812 10809 10806 10803 10800 10798 10795 10793 10791 10789 10786 10784 10782 10781 10781 10780 10779 10778 10778 10777 10775 10773 10772 10771 10771 10771 10771 10771 10772 10773
10836 10834 10832 10830 10827 10824 10820 10817 10814 10811 10808 10805 10802 10799 10796 10793 10790 10788 10786 10783 10782 10779 10776 10774 10772 10771 10771 10771 10770 10768 10768 10767 10765 10763 10762 10761 10761 10761 10761 10761 10762 10762
10829 10827 10825 10822 10819 10816 10812 10808 10805 10802 10798 10796 10793 10789 10787 10784 10781 10779 10776 10774 10772 10770 10767 10764 10762 10762 10761 10761 10760 10758 10758 10757 10755 10754 10752 10751 10750 10750 10750 10751 10751 10752
10823 10820 10817 10814 10810 10807 10804 10800 10797 10793 10790 10787 10783 10780 10777 10775 10772 10769 10767 10764 10763 10761 10758 10755 10752 10751 10751 10750 10749 10748 10748 10747 10746 10744 10743 10741 10740 10739 10739 10740 10741 10742
10816 10812 10808 10804 10801 10798 10795 10792 10789 10785 10782 10779 10775 10772 10769 10766 10763 10760 10758 10755 10753 10751 10749 10746 10742 10740 10741 10740 10739 10738 10738 10737 10736 10734 10733 10732 10730 10729 10729 10730 10730 10731
10809 10804 10800 10796 10793 10790 10787 10784 10781 10778 10775 10772 10768 10764 10761 10758 10755 10752 10749 10746 10744 10741 10739 10736 10732 10729 10729 10729 10728 10728 10727 10726 10725 10724 10723 10721 10720 10719 10720 10719 10719 10719
10801 10797 10793 10790 10786 10782 10779 10776 10773 10771 10768 10764 10761 10757 10753 10749 10746 10743 10739 10736 10734 10731 10728 10726 10723 10719 10718 10719 10718 10717 10716 10716 10715 10714 10712 10710 10709 10709 10709 10709 10708 10709
10793 10790 10787 10783 10780 10776 10772 10768 10766 10763 10760 10756 10753 10750 10746 10741 10737 10734 10729 10726 10724 10722 10719 10716 10714 10711 10708 10708 10707 10706 10705 10705 10705 10704 10702 10700 10699 10699 10699 10698 10698 10698
10786 10783 10780 10776 10773 10769 10764 10761 10758 10754 10751 10747 10744 10740 10737 10732 10728 10725 10721 10716 10713 10711 10709 10707 10705 10703 10699 10697 10697 10696 10695 10695 10695 10694 10692 10690 10689 10689 10688 10687 10687 10687